Weather in Matrosy

Russia / Republic of Karelia     61°46′52″N   33°48′46″E
В апреле 2022 года жителям России запретили посещать сайт meteo.paraplan.net по решению Генеральной прокуратуры. Аудитория сайта уменьшилась в 10 раз. Владельцы сайта не видят смысла в поддержке погодного сервера в таких условиях. Сайт будет закрыт в октябре.
temp.,
°C
wind,
m/s
gust,
m/s
humid.,
%
clouds,
%
prec.,
mm/h
press.,
hPa
HPBL,
m
25 september, sun
sun2500:00+7ne4990100 0.0 1010812
03:00+6nne41094100 0.1 1010807
06:00+5ne5992100 0.1 1009810
09:00+5ne41093100 0.1 1009747
12:00+6ne3892100 0.0 1009652
15:00+7ene3691100 0.0 1009512
18:00+8ne2696100 0.0 1009378
21:00+7ene2699100 0.1 1009204
26 september, mon
mon2600:00+7ene2599100 0.1 1009174
03:00+7ene2498100 0.2 1009138
06:00+7ene2598100 0.0 1010197
09:00+8ene2591100 0.0 1010331
12:00+9ne2482100 0.0 1010590
15:00+9ne2489100 0.3 1010411
18:00+7nne2599100 1.4 1011380
21:00+7ene2696100 1.5 1012366
27 september, tue
tue2700:00+6ene2596100 0.1 1012309
03:00+6ene2596100 0.1 1013346
06:00+6e2796100 0.1 1013492
09:00+7e2795100 0.1 1014605
12:00+8e368862 0.1 1015693
15:00+9e368384 0.2 1015792
18:00+8e3989100 0.1 1016536
21:00+8e31092100 0.4 1016467
28 september, wed
wed2800:00+8e3994100 0.2 1017531
03:00+8e3894100 0.3 1017538
06:00+7e389192 0.1 1017498
09:00+8e498984 0.1 1017776
12:00+8e4108499 0.1 1017885
15:00+9e597599 0.1 1016964
18:00+8e51077100 0.1 1016922
21:00+7e51070100 0.1 10161027
29 september, thu
thu2900:00+5e51171100 0.0 1015894
03:00+5e61276100 0.0 1014861
06:00+4e51288100 0.1 1013909
09:00+4e51291100 0.4 1012923
12:00+4ese51293100 0.7 1013804
15:00+4ese51193100 1.7 1013763
18:00+3ese41195100 0.9 1014653
21:00+4se41095100 1.3 1014562